Year,Month,Day,Hour,Minute,Value (Times are PST for temperature in C)
2017,06,22,00,00,12.30
2017,06,22,00,01,12.30
2017,06,22,00,02,12.30
2017,06,22,00,03,12.30
2017,06,22,00,04,12.20
2017,06,22,00,05,12.20
2017,06,22,00,06,12.20
2017,06,22,00,07,12.10
2017,06,22,00,08,12.10
2017,06,22,00,09,12.10
2017,06,22,00,10,12.10
2017,06,22,00,11,12.00
2017,06,22,00,12,12.00
2017,06,22,00,13,12.00
2017,06,22,00,14,11.90
2017,06,22,00,15,11.90
2017,06,22,00,16,11.80
2017,06,22,00,17,11.80
2017,06,22,00,18,11.80
2017,06,22,00,19,11.80
2017,06,22,00,20,11.80
2017,06,22,00,21,11.70
2017,06,22,00,22,11.70
2017,06,22,00,23,11.70
2017,06,22,00,24,11.60
2017,06,22,00,25,11.60
2017,06,22,00,26,11.60
2017,06,22,00,27,11.60
2017,06,22,00,28,11.60
2017,06,22,00,29,11.60
2017,06,22,00,30,11.50
2017,06,22,00,31,11.40
2017,06,22,00,32,11.40
2017,06,22,00,33,11.40
2017,06,22,00,34,11.40
2017,06,22,00,35,11.40
2017,06,22,00,36,11.30
2017,06,22,00,37,11.30
2017,06,22,00,38,11.30
2017,06,22,00,39,11.30
2017,06,22,00,40,11.20
2017,06,22,00,41,11.20
2017,06,22,00,42,11.20
2017,06,22,00,43,11.20
2017,06,22,00,44,11.20
2017,06,22,00,45,11.20
2017,06,22,00,46,11.10
2017,06,22,00,47,11.10
2017,06,22,00,48,11.10
2017,06,22,00,49,11.10
2017,06,22,00,50,11.10
2017,06,22,00,51,11.10
2017,06,22,00,52,11.10
2017,06,22,00,53,11.10
2017,06,22,00,54,11.00
2017,06,22,00,55,10.90
2017,06,22,00,56,10.90
2017,06,22,00,57,10.90
2017,06,22,00,58,10.90
2017,06,22,00,59,10.90
2017,06,22,01,00,10.90
2017,06,22,01,01,10.90
2017,06,22,01,02,10.90
2017,06,22,01,03,10.90
2017,06,22,01,04,10.80
2017,06,22,01,05,10.80
2017,06,22,01,06,10.80
2017,06,22,01,07,10.80
2017,06,22,01,08,10.70
2017,06,22,01,09,10.70
2017,06,22,01,10,10.70
2017,06,22,01,11,10.70
2017,06,22,01,12,10.70
2017,06,22,01,13,10.60
2017,06,22,01,14,10.60
2017,06,22,01,15,10.60
2017,06,22,01,16,10.60
2017,06,22,01,17,10.60
2017,06,22,01,18,10.60
2017,06,22,01,19,10.60
2017,06,22,01,20,10.60
2017,06,22,01,21,10.60
2017,06,22,01,22,10.60
2017,06,22,01,23,10.60
2017,06,22,01,24,10.60
2017,06,22,01,25,10.60
2017,06,22,01,26,10.50
2017,06,22,01,27,10.40
2017,06,22,01,28,10.40
2017,06,22,01,29,10.40
2017,06,22,01,30,10.40
2017,06,22,01,31,10.40
2017,06,22,01,32,10.40
2017,06,22,01,33,10.40
2017,06,22,01,34,10.40
2017,06,22,01,35,10.40
2017,06,22,01,36,10.40
2017,06,22,01,37,10.40
2017,06,22,01,38,10.40
2017,06,22,01,39,10.40
2017,06,22,01,40,10.40
2017,06,22,01,41,10.40
2017,06,22,01,42,10.40
2017,06,22,01,43,10.40
2017,06,22,01,44,10.40
2017,06,22,01,45,10.40
2017,06,22,01,46,10.40
2017,06,22,01,47,10.40
2017,06,22,01,48,10.40
2017,06,22,01,49,10.40
2017,06,22,01,50,10.40
2017,06,22,01,51,10.30
2017,06,22,01,52,10.30
2017,06,22,01,53,10.30
2017,06,22,01,54,10.30
2017,06,22,01,55,10.30
2017,06,22,01,56,10.20
2017,06,22,01,57,10.20
2017,06,22,01,58,10.20
2017,06,22,01,59,10.20
2017,06,22,02,00,10.20
2017,06,22,02,01,10.20
2017,06,22,02,02,10.10
2017,06,22,02,03,10.10
2017,06,22,02,04,10.10
2017,06,22,02,05,10.10
2017,06,22,02,06,10.10
2017,06,22,02,07,10.10
2017,06,22,02,08,10.10
2017,06,22,02,09,10.10
2017,06,22,02,10,10.00
2017,06,22,02,11,9.90
2017,06,22,02,12,9.90
2017,06,22,02,13,9.90
2017,06,22,02,14,9.90
2017,06,22,02,15,9.90
2017,06,22,02,16,9.90
2017,06,22,02,17,9.90
2017,06,22,02,18,9.90
2017,06,22,02,19,9.90
2017,06,22,02,20,9.90
2017,06,22,02,21,9.90
2017,06,22,02,22,9.80
2017,06,22,02,23,9.80
2017,06,22,02,24,9.80
2017,06,22,02,25,9.80
2017,06,22,02,26,9.80
2017,06,22,02,27,9.80
2017,06,22,02,28,9.70
2017,06,22,02,29,9.70
2017,06,22,02,30,9.70
2017,06,22,02,31,9.80
2017,06,22,02,32,9.80
2017,06,22,02,33,9.80
2017,06,22,02,34,9.80
2017,06,22,02,35,9.80
2017,06,22,02,36,9.80
2017,06,22,02,37,9.80
2017,06,22,02,38,9.80
2017,06,22,02,39,9.80
2017,06,22,02,40,9.80
2017,06,22,02,41,9.80
2017,06,22,02,42,9.70
2017,06,22,02,43,9.70
2017,06,22,02,44,9.70
2017,06,22,02,45,9.70
2017,06,22,02,46,9.70
2017,06,22,02,47,9.70
2017,06,22,02,48,9.70
2017,06,22,02,49,9.70
2017,06,22,02,50,9.70
2017,06,22,02,51,9.70
2017,06,22,02,52,9.70
2017,06,22,02,53,9.70
2017,06,22,02,54,9.70
2017,06,22,02,55,9.70
2017,06,22,02,56,9.70
2017,06,22,02,57,9.70
2017,06,22,02,58,9.70
2017,06,22,02,59,9.70
2017,06,22,03,00,9.70
2017,06,22,03,01,9.70
2017,06,22,03,02,9.70
2017,06,22,03,03,9.60
2017,06,22,03,04,9.60
2017,06,22,03,05,9.60
2017,06,22,03,06,9.60
2017,06,22,03,07,9.60
2017,06,22,03,08,9.60
2017,06,22,03,09,9.60
2017,06,22,03,10,9.60
2017,06,22,03,11,9.60
2017,06,22,03,12,9.60
2017,06,22,03,13,9.60
2017,06,22,03,14,9.60
2017,06,22,03,15,9.50
2017,06,22,03,16,9.50
2017,06,22,03,17,9.50
2017,06,22,03,18,9.50
2017,06,22,03,19,9.50
2017,06,22,03,20,9.50
2017,06,22,03,21,9.50
2017,06,22,03,22,9.40
2017,06,22,03,23,9.40
2017,06,22,03,24,9.40
2017,06,22,03,25,9.40
2017,06,22,03,26,9.40
2017,06,22,03,27,9.40
2017,06,22,03,28,9.40
2017,06,22,03,29,9.30
2017,06,22,03,30,9.30
2017,06,22,03,31,9.30
2017,06,22,03,32,9.30
2017,06,22,03,33,9.30
2017,06,22,03,34,9.30
2017,06,22,03,35,9.30
2017,06,22,03,36,9.30
2017,06,22,03,37,9.20
2017,06,22,03,38,9.20
2017,06,22,03,39,9.20
2017,06,22,03,40,9.20
2017,06,22,03,41,9.20
2017,06,22,03,42,9.20
2017,06,22,03,43,9.20
2017,06,22,03,44,9.20
2017,06,22,03,45,9.20
2017,06,22,03,46,9.20
2017,06,22,03,47,9.20
2017,06,22,03,48,9.20
2017,06,22,03,49,9.20
2017,06,22,03,50,9.20
2017,06,22,03,51,9.20
2017,06,22,03,52,9.20
2017,06,22,03,53,9.20
2017,06,22,03,54,9.20
2017,06,22,03,55,9.20
2017,06,22,03,56,9.20
2017,06,22,03,57,9.20
2017,06,22,03,58,9.10
2017,06,22,03,59,9.10
2017,06,22,04,00,9.10
2017,06,22,04,01,9.10
2017,06,22,04,02,9.10
2017,06,22,04,03,9.00
2017,06,22,04,04,9.00
2017,06,22,04,05,9.00
2017,06,22,04,06,9.00
2017,06,22,04,07,9.00
2017,06,22,04,08,8.90
2017,06,22,04,09,8.90
2017,06,22,04,10,8.90
2017,06,22,04,11,8.90
2017,06,22,04,12,8.90
2017,06,22,04,13,8.90
2017,06,22,04,14,8.90
2017,06,22,04,15,8.80
2017,06,22,04,16,8.80
2017,06,22,04,17,8.80
2017,06,22,04,18,8.70
2017,06,22,04,19,8.70
2017,06,22,04,20,8.70
2017,06,22,04,21,8.70
2017,06,22,04,22,8.70
2017,06,22,04,23,8.70
2017,06,22,04,24,8.70
2017,06,22,04,25,8.70
2017,06,22,04,26,8.70
2017,06,22,04,27,8.70
2017,06,22,04,28,8.70
2017,06,22,04,29,8.70
2017,06,22,04,30,8.70
2017,06,22,04,31,8.70
2017,06,22,04,32,8.70
2017,06,22,04,33,8.70
2017,06,22,04,34,8.70
2017,06,22,04,35,8.70
2017,06,22,04,36,8.60
2017,06,22,04,37,8.60
2017,06,22,04,38,8.60
2017,06,22,04,39,8.60
2017,06,22,04,40,8.50
2017,06,22,04,41,8.50
2017,06,22,04,42,8.50
2017,06,22,04,43,8.50
2017,06,22,04,44,8.50
2017,06,22,04,45,8.50
2017,06,22,04,46,8.50
2017,06,22,04,47,8.50
2017,06,22,04,48,8.50
2017,06,22,04,49,8.40
2017,06,22,04,50,8.40
2017,06,22,04,51,8.40
2017,06,22,04,52,8.40
2017,06,22,04,53,8.40
2017,06,22,04,54,8.40
2017,06,22,04,55,8.40
2017,06,22,04,56,8.40
2017,06,22,04,57,8.40
2017,06,22,04,58,8.40
2017,06,22,04,59,8.40
2017,06,22,05,00,8.40
2017,06,22,05,01,8.40
2017,06,22,05,02,8.40
2017,06,22,05,03,8.40
2017,06,22,05,04,8.40
2017,06,22,05,05,8.40
2017,06,22,05,06,8.40
2017,06,22,05,07,8.40
2017,06,22,05,08,8.40
2017,06,22,05,09,8.40
2017,06,22,05,10,8.30
2017,06,22,05,11,8.30
2017,06,22,05,12,8.30
2017,06,22,05,13,8.30
2017,06,22,05,14,8.30
2017,06,22,05,15,8.30
2017,06,22,05,16,8.30
2017,06,22,05,17,8.30
2017,06,22,05,18,8.30
2017,06,22,05,19,8.30
2017,06,22,05,20,8.30
2017,06,22,05,21,8.30
2017,06,22,05,22,8.20
2017,06,22,05,23,8.20
2017,06,22,05,24,8.20
2017,06,22,05,25,8.20
2017,06,22,05,26,8.20
2017,06,22,05,27,8.20
2017,06,22,05,28,8.20
2017,06,22,05,29,8.20
2017,06,22,05,30,8.20
2017,06,22,05,31,8.20
2017,06,22,05,32,8.20
2017,06,22,05,33,8.20
2017,06,22,05,34,8.20
2017,06,22,05,35,8.20
2017,06,22,05,36,8.20
2017,06,22,05,37,8.20
2017,06,22,05,38,8.20
2017,06,22,05,39,8.20
2017,06,22,05,40,8.20
2017,06,22,05,41,8.20
2017,06,22,05,42,8.20
2017,06,22,05,43,8.20
2017,06,22,05,44,8.20
2017,06,22,05,45,8.20
2017,06,22,05,46,8.30
2017,06,22,05,47,8.30
2017,06,22,05,48,8.30
2017,06,22,05,49,8.30
2017,06,22,05,50,8.30
2017,06,22,05,51,8.30
2017,06,22,05,52,8.30
2017,06,22,05,53,8.30
2017,06,22,05,54,8.30
2017,06,22,05,55,8.30
2017,06,22,05,56,8.30
2017,06,22,05,57,8.40
2017,06,22,05,58,8.40
2017,06,22,05,59,8.40
2017,06,22,06,00,8.50
2017,06,22,06,01,8.50
2017,06,22,06,02,8.60
2017,06,22,06,03,8.60
2017,06,22,06,04,8.70
2017,06,22,06,05,8.70
2017,06,22,06,06,8.80
2017,06,22,06,07,8.80
2017,06,22,06,08,8.90
2017,06,22,06,09,8.90
2017,06,22,06,10,9.00
2017,06,22,06,11,9.00
2017,06,22,06,12,9.10
2017,06,22,06,13,9.10
2017,06,22,06,14,9.20
2017,06,22,06,15,9.20
2017,06,22,06,16,9.20
2017,06,22,06,17,9.20
2017,06,22,06,18,9.20
2017,06,22,06,19,9.30
2017,06,22,06,20,9.30
2017,06,22,06,21,9.30
2017,06,22,06,22,9.40
2017,06,22,06,23,9.40
2017,06,22,06,24,9.40
2017,06,22,06,25,9.50
2017,06,22,06,26,9.50
2017,06,22,06,27,9.60
2017,06,22,06,28,9.60
2017,06,22,06,29,9.70
2017,06,22,06,30,9.70
2017,06,22,06,31,9.70
2017,06,22,06,32,9.80
2017,06,22,06,33,9.90
2017,06,22,06,34,9.90
2017,06,22,06,35,10.10
2017,06,22,06,36,10.10
2017,06,22,06,37,10.20
2017,06,22,06,38,10.30
2017,06,22,06,39,10.40
2017,06,22,06,40,10.50
2017,06,22,06,41,10.60
2017,06,22,06,42,10.70
2017,06,22,06,43,10.80
2017,06,22,06,44,10.90
2017,06,22,06,45,11.00
2017,06,22,06,46,11.10
2017,06,22,06,47,11.20
2017,06,22,06,48,11.30
2017,06,22,06,49,11.40
2017,06,22,06,50,11.50
2017,06,22,06,51,11.60
2017,06,22,06,52,11.60
2017,06,22,06,53,11.70
2017,06,22,06,54,11.70
2017,06,22,06,55,11.80
2017,06,22,06,56,11.80
2017,06,22,06,57,11.90
2017,06,22,06,58,12.00
2017,06,22,06,59,12.10
2017,06,22,07,00,12.10
2017,06,22,07,01,12.20
2017,06,22,07,02,12.30
2017,06,22,07,03,12.30
2017,06,22,07,04,12.40
2017,06,22,07,05,12.50
2017,06,22,07,06,12.60
2017,06,22,07,07,12.60
2017,06,22,07,08,12.70
2017,06,22,07,09,12.80
2017,06,22,07,10,12.80
2017,06,22,07,11,12.80
2017,06,22,07,12,12.80
2017,06,22,07,13,12.80
2017,06,22,07,14,12.80
2017,06,22,07,15,12.80
2017,06,22,07,16,12.90
2017,06,22,07,17,12.90
2017,06,22,07,18,12.90
2017,06,22,07,19,13.00
2017,06,22,07,20,13.00
2017,06,22,07,21,13.00
2017,06,22,07,22,13.10
2017,06,22,07,23,13.10
2017,06,22,07,24,13.20
2017,06,22,07,25,13.20
2017,06,22,07,26,13.30
2017,06,22,07,27,13.30
2017,06,22,07,28,13.40
2017,06,22,07,29,13.50
2017,06,22,07,30,13.60
2017,06,22,07,31,13.60
2017,06,22,07,32,13.70
2017,06,22,07,33,13.70
2017,06,22,07,34,13.80
2017,06,22,07,35,13.90
2017,06,22,07,36,14.00
2017,06,22,07,37,14.10
2017,06,22,07,38,14.30
2017,06,22,07,39,14.40
2017,06,22,07,40,14.60
2017,06,22,07,41,14.70
2017,06,22,07,42,14.80
2017,06,22,07,43,14.90
2017,06,22,07,44,15.00
2017,06,22,07,45,15.10
2017,06,22,07,46,15.20
2017,06,22,07,47,15.30
2017,06,22,07,48,15.20
2017,06,22,07,49,15.10
2017,06,22,07,50,15.00
2017,06,22,07,51,15.10
2017,06,22,07,52,15.10
2017,06,22,07,53,15.20
2017,06,22,07,54,15.20
2017,06,22,07,55,15.30
2017,06,22,07,56,15.30
2017,06,22,07,57,15.30
2017,06,22,07,58,15.30
2017,06,22,07,59,15.20
2017,06,22,08,00,15.10
2017,06,22,08,01,15.10
2017,06,22,08,02,15.10
2017,06,22,08,03,15.10
2017,06,22,08,04,15.10
2017,06,22,08,05,15.10
2017,06,22,08,06,15.10
2017,06,22,08,07,15.00
2017,06,22,08,08,14.80
2017,06,22,08,09,14.80
2017,06,22,08,10,14.70
2017,06,22,08,11,14.70
2017,06,22,08,12,14.80
2017,06,22,08,13,14.70
2017,06,22,08,14,14.70
2017,06,22,08,15,14.70
2017,06,22,08,16,14.60
2017,06,22,08,17,14.70
2017,06,22,08,18,14.70
2017,06,22,08,19,14.70
2017,06,22,08,20,14.80
2017,06,22,08,21,14.80
2017,06,22,08,22,14.80
2017,06,22,08,23,14.90
2017,06,22,08,24,14.90
2017,06,22,08,25,15.00
2017,06,22,08,26,15.10
2017,06,22,08,27,15.10
2017,06,22,08,28,15.20
2017,06,22,08,29,15.20
2017,06,22,08,30,15.10
2017,06,22,08,31,15.10
2017,06,22,08,32,15.10
2017,06,22,08,33,15.10
2017,06,22,08,34,15.10
2017,06,22,08,35,15.10
2017,06,22,08,36,15.00
2017,06,22,08,37,15.00
2017,06,22,08,38,15.10
2017,06,22,08,39,15.10
2017,06,22,08,40,15.10
2017,06,22,08,41,15.10
2017,06,22,08,42,15.20
2017,06,22,08,43,15.10
2017,06,22,08,44,15.10
2017,06,22,08,45,15.10
2017,06,22,08,46,15.00
2017,06,22,08,47,15.00
2017,06,22,08,48,15.00
2017,06,22,08,49,15.00
2017,06,22,08,50,15.10
2017,06,22,08,51,15.00
2017,06,22,08,52,15.10
2017,06,22,08,53,15.10
2017,06,22,08,54,15.20
2017,06,22,08,55,15.20
2017,06,22,08,56,15.40
2017,06,22,08,57,15.50
2017,06,22,08,58,15.50
2017,06,22,08,59,15.60
2017,06,22,09,00,15.60
2017,06,22,09,01,15.60
2017,06,22,09,02,15.60
2017,06,22,09,03,15.60
2017,06,22,09,04,15.60
2017,06,22,09,05,15.50
2017,06,22,09,06,15.40
2017,06,22,09,07,15.30
2017,06,22,09,08,15.30
2017,06,22,09,09,15.30
2017,06,22,09,10,15.30
2017,06,22,09,11,15.30
2017,06,22,09,12,15.30
2017,06,22,09,13,15.30
2017,06,22,09,14,15.40
2017,06,22,09,15,15.50
2017,06,22,09,16,15.60
2017,06,22,09,17,15.60
2017,06,22,09,18,15.60
2017,06,22,09,19,15.70
2017,06,22,09,20,15.80
2017,06,22,09,21,15.80
2017,06,22,09,22,15.80
2017,06,22,09,23,15.80
2017,06,22,09,24,15.90
2017,06,22,09,25,16.10
2017,06,22,09,26,16.10
2017,06,22,09,27,16.10
2017,06,22,09,28,16.10
2017,06,22,09,29,16.20
2017,06,22,09,30,16.20
2017,06,22,09,31,16.10
2017,06,22,09,32,16.00
2017,06,22,09,33,15.80
2017,06,22,09,34,15.50
2017,06,22,09,35,15.30
2017,06,22,09,36,15.30
2017,06,22,09,37,15.30
2017,06,22,09,38,15.40
2017,06,22,09,39,15.50
2017,06,22,09,40,15.50
2017,06,22,09,41,15.50
2017,06,22,09,42,15.60
2017,06,22,09,43,15.60
2017,06,22,09,44,15.50
2017,06,22,09,45,15.50
2017,06,22,09,46,15.60
2017,06,22,09,47,15.70
2017,06,22,09,48,15.80
2017,06,22,09,49,16.00
2017,06,22,09,50,16.10
2017,06,22,09,51,16.30
2017,06,22,09,52,16.30
2017,06,22,09,53,16.30
2017,06,22,09,54,16.20
2017,06,22,09,55,16.20
2017,06,22,09,56,16.30
2017,06,22,09,57,16.30
2017,06,22,09,58,16.30
2017,06,22,09,59,16.10
2017,06,22,10,00,15.90
2017,06,22,10,01,15.70
2017,06,22,10,02,15.50
2017,06,22,10,03,15.50
2017,06,22,10,04,15.40
2017,06,22,10,05,15.50
2017,06,22,10,06,15.60
2017,06,22,10,07,15.70
2017,06,22,10,08,15.80
2017,06,22,10,09,15.70
2017,06,22,10,10,15.80
2017,06,22,10,11,15.80
2017,06,22,10,12,15.80
2017,06,22,10,13,15.90
2017,06,22,10,14,16.00
2017,06,22,10,15,16.10
2017,06,22,10,16,16.10
2017,06,22,10,17,16.20
2017,06,22,10,18,16.20
2017,06,22,10,19,16.30
2017,06,22,10,20,16.20
2017,06,22,10,21,16.10
2017,06,22,10,22,16.10
2017,06,22,10,23,16.10
2017,06,22,10,24,16.20
2017,06,22,10,25,16.30
2017,06,22,10,26,16.40
2017,06,22,10,27,16.60
2017,06,22,10,28,16.60
2017,06,22,10,29,16.50
2017,06,22,10,30,16.50
2017,06,22,10,31,16.50
2017,06,22,10,32,16.40
2017,06,22,10,33,16.30
2017,06,22,10,34,16.20
2017,06,22,10,35,16.10
2017,06,22,10,36,16.10
2017,06,22,10,37,16.10
2017,06,22,10,38,16.20
2017,06,22,10,39,16.30
2017,06,22,10,40,16.40
2017,06,22,10,41,16.60
2017,06,22,10,42,16.80
2017,06,22,10,43,17.00
2017,06,22,10,44,17.10
2017,06,22,10,45,17.30
2017,06,22,10,46,17.20
2017,06,22,10,47,17.20
2017,06,22,10,48,17.20
2017,06,22,10,49,17.10
2017,06,22,10,50,16.90
2017,06,22,10,51,16.80
2017,06,22,10,52,16.70
2017,06,22,10,53,16.70
2017,06,22,10,54,16.70
2017,06,22,10,55,16.60
2017,06,22,10,56,16.60
2017,06,22,10,57,16.70
2017,06,22,10,58,16.70
2017,06,22,10,59,16.70
2017,06,22,11,00,16.60
2017,06,22,11,01,16.60
2017,06,22,11,02,16.70
2017,06,22,11,03,16.70
2017,06,22,11,04,16.70
2017,06,22,11,05,16.60
2017,06,22,11,06,16.70
2017,06,22,11,07,16.80
2017,06,22,11,08,16.90
2017,06,22,11,09,17.00
2017,06,22,11,10,17.00
2017,06,22,11,11,17.10
2017,06,22,11,12,17.20
2017,06,22,11,13,17.20
2017,06,22,11,14,17.20
2017,06,22,11,15,17.30
2017,06,22,11,16,17.50
2017,06,22,11,17,17.50
2017,06,22,11,18,17.50
2017,06,22,11,19,17.40
2017,06,22,11,20,17.40
2017,06,22,11,21,17.30
2017,06,22,11,22,17.30
2017,06,22,11,23,17.30
2017,06,22,11,24,17.30
2017,06,22,11,25,17.30
2017,06,22,11,26,17.30
2017,06,22,11,27,17.30
2017,06,22,11,28,17.20
2017,06,22,11,29,17.30
2017,06,22,11,30,17.40
2017,06,22,11,31,17.50
2017,06,22,11,32,17.60
2017,06,22,11,33,17.70
2017,06,22,11,34,17.50
2017,06,22,11,35,17.50
2017,06,22,11,36,17.60
2017,06,22,11,37,17.60
2017,06,22,11,38,17.60
2017,06,22,11,39,17.50
2017,06,22,11,40,17.60
2017,06,22,11,41,17.60
2017,06,22,11,42,17.70
2017,06,22,11,43,17.80
2017,06,22,11,44,18.00
2017,06,22,11,45,18.20
2017,06,22,11,46,18.20
2017,06,22,11,47,18.20
2017,06,22,11,48,18.20
2017,06,22,11,49,18.30
2017,06,22,11,50,18.30
2017,06,22,11,51,18.30
2017,06,22,11,52,18.20
2017,06,22,11,53,18.20
2017,06,22,11,54,18.10
2017,06,22,11,55,17.90
2017,06,22,11,56,18.00
2017,06,22,11,57,18.20
2017,06,22,11,58,18.20
2017,06,22,11,59,18.20
2017,06,22,12,00,18.20
2017,06,22,12,01,18.00
2017,06,22,12,02,17.90
2017,06,22,12,03,17.90
2017,06,22,12,04,17.90
2017,06,22,12,05,17.90
2017,06,22,12,06,17.80
2017,06,22,12,07,17.80
2017,06,22,12,08,17.80
2017,06,22,12,09,17.90
2017,06,22,12,10,18.00
2017,06,22,12,11,18.10
2017,06,22,12,12,18.10
2017,06,22,12,13,18.10
2017,06,22,12,14,18.10
2017,06,22,12,15,17.90
2017,06,22,12,16,17.90
2017,06,22,12,17,17.90
2017,06,22,12,18,17.80
2017,06,22,12,19,17.70
2017,06,22,12,20,17.70
2017,06,22,12,21,17.70
2017,06,22,12,22,17.70
2017,06,22,12,23,17.70
2017,06,22,12,24,17.80
2017,06,22,12,25,17.90
2017,06,22,12,26,18.10
2017,06,22,12,27,18.20
2017,06,22,12,28,18.10
2017,06,22,12,29,17.90
2017,06,22,12,30,17.80
2017,06,22,12,31,17.80
2017,06,22,12,32,17.80
2017,06,22,12,33,17.70
2017,06,22,12,34,17.60
2017,06,22,12,35,17.60
2017,06,22,12,36,17.70
2017,06,22,12,37,17.80
2017,06,22,12,38,17.80
2017,06,22,12,39,17.80
2017,06,22,12,40,17.90
2017,06,22,12,41,17.80
2017,06,22,12,42,17.90
2017,06,22,12,43,17.90
2017,06,22,12,44,17.90
2017,06,22,12,45,17.90
2017,06,22,12,46,17.90
2017,06,22,12,47,18.00
2017,06,22,12,48,18.10
2017,06,22,12,49,18.20
2017,06,22,12,50,18.20
2017,06,22,12,51,18.10
2017,06,22,12,52,18.00
2017,06,22,12,53,18.00
2017,06,22,12,54,18.10
2017,06,22,12,55,18.30
2017,06,22,12,56,18.50
2017,06,22,12,57,18.60
2017,06,22,12,58,18.60
2017,06,22,12,59,18.40
2017,06,22,13,00,18.30
2017,06,22,13,01,18.20
2017,06,22,13,02,18.30
2017,06,22,13,03,18.40
2017,06,22,13,04,18.60
2017,06,22,13,05,18.70
2017,06,22,13,06,18.90
2017,06,22,13,07,18.70
2017,06,22,13,08,18.70
2017,06,22,13,09,18.70
2017,06,22,13,10,18.80
2017,06,22,13,11,18.90
2017,06,22,13,12,19.00
2017,06,22,13,13,19.00
2017,06,22,13,14,19.00
2017,06,22,13,15,19.10
2017,06,22,13,16,19.10
2017,06,22,13,17,19.20
2017,06,22,13,18,19.30
2017,06,22,13,19,19.40
2017,06,22,13,20,19.60
2017,06,22,13,21,19.80
2017,06,22,13,22,19.90
2017,06,22,13,23,19.90
2017,06,22,13,24,19.90
2017,06,22,13,25,19.90
2017,06,22,13,26,19.90
2017,06,22,13,27,19.90
2017,06,22,13,28,20.00
2017,06,22,13,29,20.10
2017,06,22,13,30,20.30
2017,06,22,13,31,20.50
2017,06,22,13,32,20.70
2017,06,22,13,33,20.80
2017,06,22,13,34,20.90
2017,06,22,13,35,20.90
2017,06,22,13,36,21.00
2017,06,22,13,37,21.10
2017,06,22,13,38,21.10
2017,06,22,13,39,21.00
2017,06,22,13,40,20.80
2017,06,22,13,41,20.80
2017,06,22,13,42,20.80
2017,06,22,13,43,20.80
2017,06,22,13,44,20.80
2017,06,22,13,45,20.70
2017,06,22,13,46,20.60
2017,06,22,13,47,20.50
2017,06,22,13,48,20.20
2017,06,22,13,49,20.20
2017,06,22,13,50,20.10
2017,06,22,13,51,19.90
2017,06,22,13,52,19.90
2017,06,22,13,53,19.90
2017,06,22,13,54,20.00
2017,06,22,13,55,20.10
2017,06,22,13,56,20.20
2017,06,22,13,57,20.30
2017,06,22,13,58,20.20
2017,06,22,13,59,20.20
2017,06,22,14,00,20.10
2017,06,22,14,01,20.10
2017,06,22,14,02,20.10
2017,06,22,14,03,20.10
2017,06,22,14,04,20.10
2017,06,22,14,05,20.10
2017,06,22,14,06,20.20
2017,06,22,14,07,20.40
2017,06,22,14,08,20.50
2017,06,22,14,09,20.70
2017,06,22,14,10,20.90
2017,06,22,14,11,20.90
2017,06,22,14,12,20.90
2017,06,22,14,13,20.90
2017,06,22,14,14,20.80
2017,06,22,14,15,20.80
2017,06,22,14,16,20.80
2017,06,22,14,17,20.70
2017,06,22,14,18,20.80
2017,06,22,14,19,20.60
2017,06,22,14,20,20.30
2017,06,22,14,21,20.20
2017,06,22,14,22,20.20
2017,06,22,14,23,20.20
2017,06,22,14,24,20.40
2017,06,22,14,25,20.50
2017,06,22,14,26,20.60
2017,06,22,14,27,20.70
2017,06,22,14,28,20.80
2017,06,22,14,29,20.90
2017,06,22,14,30,20.90
2017,06,22,14,31,21.10
2017,06,22,14,32,21.20
2017,06,22,14,33,21.20
2017,06,22,14,34,21.20
2017,06,22,14,35,21.00
2017,06,22,14,36,20.90
2017,06,22,14,37,21.00
2017,06,22,14,38,21.00
2017,06,22,14,39,21.10
2017,06,22,14,40,21.20
2017,06,22,14,41,21.20
2017,06,22,14,42,21.00
2017,06,22,14,43,21.00
2017,06,22,14,44,21.00
2017,06,22,14,45,20.90
2017,06,22,14,46,20.90
2017,06,22,14,47,20.90
2017,06,22,14,48,20.90
2017,06,22,14,49,20.90
2017,06,22,14,50,20.80
2017,06,22,14,51,20.90
2017,06,22,14,52,20.90
2017,06,22,14,53,20.90
2017,06,22,14,54,20.90
2017,06,22,14,55,21.00
2017,06,22,14,56,21.10
2017,06,22,14,57,21.10
2017,06,22,14,58,21.20
2017,06,22,14,59,21.10
2017,06,22,15,00,21.20
2017,06,22,15,01,21.20
2017,06,22,15,02,21.30
2017,06,22,15,03,21.40
2017,06,22,15,04,21.50
2017,06,22,15,05,21.60
2017,06,22,15,06,21.70
2017,06,22,15,07,21.70
2017,06,22,15,08,21.60
2017,06,22,15,09,21.50
2017,06,22,15,10,21.50
2017,06,22,15,11,21.60
2017,06,22,15,12,21.40
2017,06,22,15,13,21.10
2017,06,22,15,14,20.90
2017,06,22,15,15,20.80
2017,06,22,15,16,20.70
2017,06,22,15,17,20.60
2017,06,22,15,18,20.60
2017,06,22,15,19,20.60
2017,06,22,15,20,20.60
2017,06,22,15,21,20.70
2017,06,22,15,22,20.70
2017,06,22,15,23,20.80
2017,06,22,15,24,20.80
2017,06,22,15,25,20.70
2017,06,22,15,26,20.60
2017,06,22,15,27,20.50
2017,06,22,15,28,20.60
2017,06,22,15,29,20.50
2017,06,22,15,30,20.60
2017,06,22,15,31,20.60
2017,06,22,15,32,20.60
2017,06,22,15,33,20.50
2017,06,22,15,34,20.50
2017,06,22,15,35,20.40
2017,06,22,15,36,20.50
2017,06,22,15,37,20.50
2017,06,22,15,38,20.60
2017,06,22,15,39,20.50
2017,06,22,15,40,20.50
2017,06,22,15,41,20.40
2017,06,22,15,42,20.20
2017,06,22,15,43,20.20
2017,06,22,15,44,20.30
2017,06,22,15,45,20.40
2017,06,22,15,46,20.50
2017,06,22,15,47,20.70
2017,06,22,15,48,20.80
2017,06,22,15,49,21.00
2017,06,22,15,50,21.00
2017,06,22,15,51,21.00
2017,06,22,15,52,21.00
2017,06,22,15,53,21.10
2017,06,22,15,54,21.20
2017,06,22,15,55,21.30
2017,06,22,15,56,21.40
2017,06,22,15,57,21.60
2017,06,22,15,58,21.70
2017,06,22,15,59,21.70
2017,06,22,16,00,21.70
2017,06,22,16,01,21.70
2017,06,22,16,02,21.80
2017,06,22,16,03,21.90
2017,06,22,16,04,22.00
2017,06,22,16,05,22.10
2017,06,22,16,06,22.10
2017,06,22,16,07,22.10
2017,06,22,16,08,22.00
2017,06,22,16,09,22.00
2017,06,22,16,10,21.80
2017,06,22,16,11,21.70
2017,06,22,16,12,21.70
2017,06,22,16,13,21.80
2017,06,22,16,14,21.90
2017,06,22,16,15,21.90
2017,06,22,16,16,21.80
2017,06,22,16,17,21.60
2017,06,22,16,18,21.60
2017,06,22,16,19,21.60
2017,06,22,16,20,21.60
2017,06,22,16,21,21.70
2017,06,22,16,22,21.70
2017,06,22,16,23,21.70
2017,06,22,16,24,21.70
2017,06,22,16,25,21.80
2017,06,22,16,26,21.80
2017,06,22,16,27,21.90
2017,06,22,16,28,21.70
2017,06,22,16,29,21.40
2017,06,22,16,30,21.20
2017,06,22,16,31,21.20
2017,06,22,16,32,21.20
2017,06,22,16,33,21.30
2017,06,22,16,34,21.30
2017,06,22,16,35,21.30
2017,06,22,16,36,21.30
2017,06,22,16,37,21.20
2017,06,22,16,38,21.20
2017,06,22,16,39,21.20
2017,06,22,16,40,21.20
2017,06,22,16,41,21.20
2017,06,22,16,42,21.30
2017,06,22,16,43,21.30
2017,06,22,16,44,21.40
2017,06,22,16,45,21.50
2017,06,22,16,46,21.60
2017,06,22,16,47,21.60
2017,06,22,16,48,21.60
2017,06,22,16,49,21.70
2017,06,22,16,50,21.70
2017,06,22,16,51,21.80
2017,06,22,16,52,21.80
2017,06,22,16,53,21.80
2017,06,22,16,54,21.80
2017,06,22,16,55,21.90
2017,06,22,16,56,22.00
2017,06,22,16,57,22.10
2017,06,22,16,58,22.20
2017,06,22,16,59,22.30
2017,06,22,17,00,22.40
2017,06,22,17,01,22.40
2017,06,22,17,02,22.40
2017,06,22,17,03,22.40
2017,06,22,17,04,22.50
2017,06,22,17,05,22.50
2017,06,22,17,06,22.50
2017,06,22,17,07,22.50
2017,06,22,17,08,22.50
2017,06,22,17,09,22.50
2017,06,22,17,10,22.40
2017,06,22,17,11,22.40
2017,06,22,17,12,22.40
2017,06,22,17,13,22.50
2017,06,22,17,14,22.40
2017,06,22,17,15,22.30
2017,06,22,17,16,22.20
2017,06,22,17,17,22.10
2017,06,22,17,18,22.10
2017,06,22,17,19,22.20
2017,06,22,17,20,22.20
2017,06,22,17,21,22.00
2017,06,22,17,22,21.90
2017,06,22,17,23,21.80
2017,06,22,17,24,21.70
2017,06,22,17,25,21.60
2017,06,22,17,26,21.60
2017,06,22,17,27,21.50
2017,06,22,17,28,21.40
2017,06,22,17,29,21.30
2017,06,22,17,30,21.30